Location: Ellingshausen
(50.5460°N, 10.4723°E)
Time: 12:18:20
(UTC+00:00)

Cosmos 676 Rocket - Pass Details

Date: 10 April 2026
Orbit: 750 x 779 km, 74.0° (Epoch: 19 May)

Event Time Altitude Azimuth Distance (km) Brightness Sun altitude
Rises 22:01:55 0° 341° (NNW) 3,274 8.5 -28.9°
Reaches altitude 10° 22:05:49 10° 10° (N) 2,340 7.2 -29.1°
Maximum altitude 22:08:10 13° 36° (NE) 2,141 6.6 -29.2°
Drops below altitude 10° 22:10:30 10° 63° (ENE) 2,330 6.6 -29.4°
Enters shadow 22:11:01 - 68° (ENE) 2,418 6.6 -29.4°
